User: anonymous   Login
Location: Oshawa
(43.9000°N, 78.8670°W)
Time: 15:21:14
(UTC-04:00)
Language:

Cosmos 1707 Rocket - Orbit

View from above orbital plane
View from above orbital plane
View from above satellite
View from above satellite

Ground track
Ground track

The orbit data is extracted from the following two-line orbital elements,

1 16327U 85113B   16122.52028288  .00000151  00000-0  15584-4 0  9998
2 16327  82.5320 117.2302 0017471 265.8066 214.1232 14.83285330640855
Epoch (UTC): 01 May 2016 12:29:12
Eccentricity: 0.0017471
inclination: 82.5320°
perigee height: 607 km
apogee height: 631 km
right ascension of ascending node: 117.2302°
argument of perigee: 265.8066°
revolutions per day: 14.83285330
mean anomaly at epoch: 214.1232°
orbit number at epoch: 64085

The dashed part of the orbit path shows where the satellite is in the earth's shadow,  

DLR